HULIANWANG DIGUI-71

导读

HULIANWANG DIGUI-71是中国于2025年8月17日成功发射的低轨卫星,隶属于“低轨互联网星座”项目,旨在构建覆盖全球的高速卫星通信网络,推动天地一体化信息网络建设。该卫星将为全球用户提供高速互联网接入服务,尤其可填补偏远地区、海洋等地面网络覆盖盲区,助力中国卫星互联网产业发展与全球互联互通。

Basic Information
目录编号:
65231
目录名称:
HULIANWANG DIGUI-71
国际标识:
2025-178D
轨道中心:
EARTH
卫星名称:
HULIANWANG DIGUI-71
卫星全名:
HULIANWANG DIGUI-71
卫星状态:
在轨 (已飞行300 天)
发射日期:
2025-08-17 UTC
国别 :
中国 (CN)
星等 :
--
Orbit Information
数据来源 国际轨道数据 AOE轨道数据
星历时间 2026-06-12T14:32:45+0800
17小时前
查看轨道信息
2026-06-13T02:00:00+0800
6小时前
查看轨道信息
半长轴 7546.059km 7546.061km
偏心率 0.0001818 0.0001713
轨道倾角 86.500° 86.500°
近地点辐角 91.841° 105.377°
升交点赤经 15.219° 15.059°
平近点角 268.293° 8.946°
近地点 1166.55km 1166.631km
远地点 1169.294km 1169.217km
周期 108.728分钟 108.728分钟
每日圈数 13.244103 13.244096
Detailed Information
使用方式:
暂无
2D Orbit Map
3D Orbit Map
Orbit Altitude Analysis Chart
Orbit Inclination Analysis Chart
Orbit Comprehensive Analysis Chart
View Comprehensive Chart